| time (UTC) | temp F | wind direction | speed MPH | gust MPH | rain 1hr in | rain 24hr in | rain mn in | humidity % | barometer mb |
| 20260506210739 | 50 | 45 | 1.0 | 5.0 | 0.00 | 0.33 | 0.23 | 70 | 1010.3 |
| 20260506210539 | 50 | 52 | 1.0 | 5.0 | 0.00 | 0.33 | 0.23 | 70 | 1010.2 |
| 20260506210339 | 50 | 310 | 1.0 | 7.0 | 0.00 | 0.33 | 0.23 | 70 | 1010.2 |
| 20260506210138 | 50 | 358 | 1.0 | 8.0 | 0.00 | 0.33 | 0.23 | 71 | 1010.1 |
| 20260506205938 | 50 | 354 | 2.0 | 8.0 | 0.00 | 0.36 | 0.23 | 70 | 1010.0 |
| 20260506205738 | 50 | 6 | 1.0 | 8.0 | 0.00 | 0.36 | 0.23 | 69 | 1010.0 |
| 20260506205537 | 50 | 355 | 1.0 | 8.0 | 0.00 | 0.36 | 0.23 | 69 | 1010.1 |
| 20260506205337 | 51 | 27 | 1.0 | 8.0 | 0.00 | 0.36 | 0.23 | 70 | 1010.0 |
| 20260506205137 | 50 | 24 | 0.0 | 4.0 | 0.00 | 0.36 | 0.23 | 70 | 1010.0 |
| 20260506204936 | 50 | 356 | 0.0 | 4.0 | 0.00 | 0.36 | 0.23 | 70 | 1010.0 |
| 20260506204736 | 50 | 1 | 1.0 | 4.0 | 0.00 | 0.36 | 0.23 | 70 | 1009.9 |
| 20260506204536 | 50 | 47 | 1.0 | 5.0 | 0.00 | 0.36 | 0.23 | 70 | 1010.0 |
| 20260506204336 | 50 | 53 | 1.0 | 5.0 | 0.00 | 0.36 | 0.23 | 69 | 1009.9 |
| 20260506204135 | 50 | 347 | 1.0 | 5.0 | 0.00 | 0.36 | 0.23 | 69 | 1010.0 |
| 20260506203935 | 51 | 26 | 2.0 | 5.0 | 0.00 | 0.36 | 0.23 | 68 | 1010.0 |
| 20260506203735 | 51 | 25 | 1.0 | 5.0 | 0.00 | 0.36 | 0.23 | 69 | 1010.0 |
| 20260506203534 | 51 | 266 | 0.0 | 5.0 | 0.00 | 0.36 | 0.23 | 70 | 1010.0 |
| 20260506203334 | 50 | 275 | 1.0 | 4.0 | 0.00 | 0.36 | 0.23 | 71 | 1010.0 |
| 20260506203134 | 50 | 327 | 1.0 | 4.0 | 0.00 | 0.36 | 0.23 | 71 | 1010.1 |
| 20260506202933 | 50 | 11 | 1.0 | 4.0 | 0.00 | 0.36 | 0.23 | 72 | 1010.1 |
| 20260506202733 | 50 | 16 | 1.0 | 5.0 | 0.00 | 0.36 | 0.23 | 71 | 1010.2 |
| 20260506202533 | 50 | 5 | 1.0 | 5.0 | 0.00 | 0.36 | 0.23 | 70 | 1010.1 |
| 20260506202333 | 49 | 354 | 1.0 | 5.0 | 0.00 | 0.36 | 0.23 | 71 | 1010.1 |
| 20260506202132 | 49 | 24 | 1.0 | 5.0 | 0.00 | 0.36 | 0.23 | 72 | 1010.1 |
| 20260506201932 | 49 | 56 | 2.0 | 5.0 | 0.00 | 0.36 | 0.23 | 70 | 1010.1 |
| 20260506201732 | 49 | 13 | 2.0 | 5.0 | 0.00 | 0.36 | 0.23 | 72 | 1010.0 |
| 20260506201531 | 49 | 15 | 2.0 | 6.0 | 0.00 | 0.36 | 0.23 | 72 | 1010.1 |
| 20260506201331 | 49 | 18 | 3.0 | 7.0 | 0.00 | 0.36 | 0.23 | 72 | 1010.2 |
| 20260506201131 | 49 | 356 | 2.0 | 7.0 | 0.00 | 0.36 | 0.23 | 73 | 1010.2 |
| 20260506200930 | 49 | 342 | 1.0 | 7.0 | 0.00 | 0.36 | 0.23 | 74 | 1010.2 |
| 20260506200730 | 48 | 28 | 2.0 | 9.0 | 0.00 | 0.36 | 0.23 | 73 | 1010.2 |
| 20260506200530 | 48 | 21 | 1.0 | 9.0 | 0.00 | 0.36 | 0.23 | 73 | 1010.3 |
| 20260506200330 | 48 | 11 | 2.0 | 9.0 | 0.00 | 0.36 | 0.23 | 73 | 1010.3 |
| 20260506200129 | 48 | 20 | 3.0 | 9.0 | 0.00 | 0.36 | 0.23 | 72 | 1010.3 |
| 20260506195929 | 48 | 41 | 4.0 | 9.0 | 0.00 | 0.37 | 0.23 | 72 | 1010.4 |
| 20260506195729 | 48 | 29 | 2.0 | 9.0 | 0.00 | 0.37 | 0.23 | 72 | 1010.4 |
| 20260506195528 | 48 | 50 | 1.0 | 8.0 | 0.00 | 0.37 | 0.23 | 73 | 1010.4 |
| 20260506195328 | 48 | 27 | 2.0 | 8.0 | 0.00 | 0.37 | 0.23 | 73 | 1010.4 |
| 20260506195128 | 48 | 24 | 3.0 | 8.0 | 0.00 | 0.37 | 0.23 | 72 | 1010.5 |
| 20260506194927 | 48 | 2 | 2.0 | 8.0 | 0.00 | 0.37 | 0.23 | 73 | 1010.5 |
| 20260506194727 | 48 | 29 | 3.0 | 8.0 | 0.00 | 0.37 | 0.23 | 73 | 1010.5 |
| 20260506194527 | 48 | 47 | 2.0 | 8.0 | 0.00 | 0.37 | 0.23 | 72 | 1010.5 |
| 20260506194327 | 48 | 23 | 1.0 | 8.0 | 0.00 | 0.37 | 0.23 | 73 | 1010.4 |
| 20260506194126 | 48 | 23 | 3.0 | 8.0 | 0.00 | 0.37 | 0.23 | 74 | 1010.5 |
| 20260506193926 | 48 | 43 | 3.0 | 8.0 | 0.00 | 0.37 | 0.23 | 73 | 1010.4 |
| 20260506193726 | 48 | 39 | 3.0 | 8.0 | 0.00 | 0.37 | 0.23 | 73 | 1010.4 |
| 20260506193525 | 48 | 46 | 3.0 | 9.0 | 0.00 | 0.37 | 0.23 | 73 | 1010.5 |
| 20260506193325 | 48 | 12 | 2.0 | 10.0 | 0.00 | 0.37 | 0.23 | 73 | 1010.4 |
| 20260506193125 | 48 | 7 | 2.0 | 10.0 | 0.00 | 0.37 | 0.23 | 73 | 1010.5 |
| 20260506192924 | 48 | 16 | 3.0 | 10.0 | 0.00 | 0.37 | 0.23 | 73 | 1010.5 |
| 20260506192724 | 48 | 18 | 3.0 | 10.0 | 0.00 | 0.37 | 0.23 | 73 | 1010.4 |
| 20260506192524 | 48 | 34 | 3.0 | 9.0 | 0.00 | 0.37 | 0.23 | 74 | 1010.5 |
| 20260506192324 | 48 | 53 | 4.0 | 10.0 | 0.00 | 0.37 | 0.23 | 73 | 1010.4 |
| 20260506192123 | 48 | 54 | 4.0 | 10.0 | 0.00 | 0.37 | 0.23 | 73 | 1010.4 |
| 20260506191923 | 48 | 43 | 4.0 | 10.0 | 0.00 | 0.37 | 0.23 | 75 | 1010.3 |
| 20260506191723 | 47 | 42 | 4.0 | 10.0 | 0.00 | 0.37 | 0.23 | 74 | 1010.4 |
| 20260506191522 | 47 | 37 | 3.0 | 11.0 | 0.00 | 0.37 | 0.23 | 76 | 1010.3 |
| 20260506191322 | 47 | 42 | 4.0 | 11.0 | 0.00 | 0.37 | 0.23 | 74 | 1010.3 |
| 20260506191122 | 47 | 38 | 5.0 | 11.0 | 0.00 | 0.37 | 0.23 | 75 | 1010.3 |
| 20260506190921 | 47 | 44 | 6.0 | 11.0 | 0.00 | 0.37 | 0.23 | 75 | 1010.2 |
| 20260506190721 | 47 | 63 | 5.0 | 11.0 | 0.00 | 0.37 | 0.23 | 75 | 1010.2 |
| 20260506190521 | 47 | 47 | 4.0 | 11.0 | 0.00 | 0.37 | 0.23 | 76 | 1010.2 |
| 20260506190321 | 47 | 32 | 5.0 | 11.0 | 0.00 | 0.37 | 0.23 | 75 | 1010.2 |
| 20260506190120 | 47 | 31 | 5.0 | 12.0 | 0.00 | 0.37 | 0.23 | 75 | 1010.2 |
| 20260506185920 | 47 | 32 | 3.0 | 12.0 | 0.00 | 0.37 | 0.23 | 75 | 1010.1 |
| 20260506185720 | 47 | 30 | 4.0 | 12.0 | 0.00 | 0.37 | 0.23 | 76 | 1010.1 |
| 20260506185519 | 47 | 23 | 4.0 | 12.0 | 0.00 | 0.37 | 0.23 | 76 | 1010.1 |
| 20260506185319 | 47 | 46 | 3.0 | 12.0 | 0.00 | 0.37 | 0.23 | 77 | 1010.1 |
| 20260506185119 | 47 | 32 | 2.0 | 12.0 | 0.00 | 0.37 | 0.23 | 78 | 1010.0 |
| 20260506184918 | 47 | 17 | 4.0 | 12.0 | 0.00 | 0.37 | 0.23 | 77 | 1010.0 |
| 20260506184718 | 47 | 27 | 5.0 | 12.0 | 0.00 | 0.37 | 0.23 | 77 | 1010.0 |
| 20260506184518 | 47 | 26 | 5.0 | 12.0 | 0.00 | 0.37 | 0.23 | 77 | 1010.0 |
| 20260506184318 | 47 | 41 | 4.0 | 12.0 | 0.00 | 0.37 | 0.23 | 79 | 1009.9 |
| 20260506184117 | 47 | 31 | 5.0 | 12.0 | 0.00 | 0.37 | 0.23 | 80 | 1009.8 |
| 20260506183917 | 47 | 28 | 4.0 | 19.0 | 0.00 | 0.37 | 0.23 | 81 | 1009.8 |
| 20260506183717 | 47 | 23 | 4.0 | 19.0 | 0.00 | 0.37 | 0.23 | 82 | 1009.8 |
| 20260506183516 | 46 | 19 | 5.0 | 19.0 | 0.00 | 0.37 | 0.23 | 81 | 1009.8 |
| 20260506183316 | 46 | 20 | 7.0 | 19.0 | 0.00 | 0.37 | 0.23 | 81 | 1009.8 |
| 20260506183116 | 46 | 27 | 7.0 | 19.0 | 0.00 | 0.37 | 0.23 | 82 | 1009.9 |
| 20260506182915 | 46 | 23 | 6.0 | 14.0 | 0.00 | 0.37 | 0.23 | 83 | 1009.9 |
| 20260506182715 | 46 | 39 | 6.0 | 14.0 | 0.00 | 0.37 | 0.23 | 85 | 1009.9 |
| 20260506182515 | 46 | 39 | 5.0 | 12.0 | 0.00 | 0.37 | 0.23 | 88 | 1009.9 |
| 20260506182315 | 46 | 25 | 6.0 | 15.0 | 0.00 | 0.37 | 0.23 | 89 | 1009.9 |
| 20260506182114 | 46 | 30 | 5.0 | 15.0 | 0.00 | 0.37 | 0.23 | 89 | 1009.9 |
| 20260506181914 | 46 | 43 | 5.0 | 15.0 | 0.00 | 0.37 | 0.23 | 91 | 1009.9 |
| 20260506181714 | 46 | 35 | 6.0 | 15.0 | 0.00 | 0.37 | 0.23 | 90 | 1009.9 |
| 20260506181513 | 46 | 27 | 6.0 | 15.0 | 0.00 | 0.37 | 0.23 | 91 | 1009.8 |
| 20260506181313 | 46 | 25 | 6.0 | 14.0 | 0.00 | 0.37 | 0.23 | 91 | 1009.8 |
| 20260506181113 | 46 | 33 | 5.0 | 12.0 | 0.00 | 0.37 | 0.23 | 91 | 1009.8 |
| 20260506180912 | 47 | 23 | 5.0 | 12.0 | 0.00 | 0.37 | 0.23 | 90 | 1009.9 |
| 20260506180712 | 47 | 31 | 5.0 | 12.0 | 0.00 | 0.37 | 0.23 | 90 | 1009.8 |
| 20260506180512 | 48 | 38 | 4.0 | 11.0 | 0.00 | 0.37 | 0.23 | 90 | 1009.7 |
| 20260506180312 | 48 | 38 | 1.0 | 9.0 | 0.00 | 0.37 | 0.23 | 90 | 1009.7 |
| 20260506180111 | 48 | 30 | 2.0 | 10.0 | 0.00 | 0.37 | 0.23 | 90 | 1009.7 |
| 20260506175911 | 48 | 2 | 3.0 | 10.0 | 0.00 | 0.37 | 0.23 | 89 | 1009.5 |
| 20260506175711 | 48 | 27 | 4.0 | 12.0 | 0.00 | 0.37 | 0.23 | 89 | 1009.3 |
| 20260506175510 | 48 | 23 | 4.0 | 12.0 | 0.00 | 0.37 | 0.23 | 89 | 1009.3 |
| 20260506175310 | 49 | 360 | 4.0 | 17.0 | 0.00 | 0.37 | 0.23 | 88 | 1009.3 |
| 20260506175110 | 49 | 7 | 5.0 | 17.0 | 0.00 | 0.37 | 0.23 | 88 | 1009.3 |
| 20260506174909 | 50 | 12 | 5.0 | 17.0 | 0.00 | 0.37 | 0.23 | 87 | 1009.2 |
| 20260506174709 | 50 | 13 | 6.0 | 17.0 | 0.00 | 0.37 | 0.23 | 86 | 1009.1 |
| 20260506174509 | 51 | 18 | 6.0 | 17.0 | 0.00 | 0.37 | 0.23 | 85 | 1009.0 |
| 20260506174309 | 52 | 19 | 6.0 | 17.0 | 0.00 | 0.37 | 0.23 | 83 | 1008.8 |
| 20260506174108 | 53 | 110 | 7.0 | 16.0 | 0.00 | 0.37 | 0.23 | 81 | 1008.8 |
| 20260506173908 | 55 | 155 | 6.0 | 16.0 | 0.00 | 0.37 | 0.23 | 78 | 1009.0 |
| 20260506173708 | 56 | 271 | 1.0 | 14.0 | 0.00 | 0.37 | 0.23 | 80 | 1009.0 |
| 20260506173507 | 56 | 261 | 1.0 | 4.0 | 0.00 | 0.37 | 0.23 | 82 | 1008.5 |
| 20260506173307 | 56 | 250 | 1.0 | 4.0 | 0.00 | 0.37 | 0.23 | 82 | 1008.5 |
| 20260506173107 | 56 | 218 | 2.0 | 5.0 | 0.00 | 0.37 | 0.23 | 80 | 1008.6 |
| 20260506172906 | 56 | 48 | 1.0 | 5.0 | 0.00 | 0.37 | 0.23 | 82 | 1008.7 |
| 20260506172706 | 56 | 44 | 0.0 | 5.0 | 0.00 | 0.37 | 0.23 | 83 | 1008.7 |
| 20260506172506 | 56 | 22 | 1.0 | 5.0 | 0.00 | 0.37 | 0.23 | 83 | 1008.6 |
| 20260506172307 | 56 | 317 | 1.0 | 5.0 | 0.00 | 0.37 | 0.23 | 84 | 1008.6 |
| 20260506172105 | 55 | 350 | 1.0 | 4.0 | 0.00 | 0.37 | 0.23 | 86 | 1008.7 |
| 20260506171905 | 55 | 39 | 0.0 | 4.0 | 0.00 | 0.37 | 0.23 | 86 | 1008.7 |
| 20260506171705 | 54 | 47 | 2.0 | 4.0 | 0.00 | 0.37 | 0.23 | 86 | 1008.8 |
| 20260506171504 | 54 | 35 | 2.0 | 4.0 | 0.00 | 0.37 | 0.23 | 86 | 1008.9 |
| 20260506171304 | 54 | 35 | 0.0 | 4.0 | 0.00 | 0.37 | 0.23 | 87 | 1009.0 |
| 20260506171104 | 53 | 21 | 1.0 | 5.0 | 0.00 | 0.37 | 0.23 | 88 | 1009.0 |
| 20260506170903 | 53 | 20 | 1.0 | 5.0 | 0.00 | 0.37 | 0.23 | 89 | 1008.9 |
| 20260506170703 | 52 | 64 | 0.0 | 5.0 | 0.00 | 0.37 | 0.23 | 90 | 1008.9 |
| 20260506170503 | 52 | 53 | 1.0 | 5.0 | 0.00 | 0.37 | 0.23 | 89 | 1008.8 |
| 20260506170302 | 52 | 9 | 1.0 | 3.0 | 0.00 | 0.37 | 0.23 | 90 | 1008.8 |
| 20260506165902 | 51 | 49 | 0.0 | 3.0 | 0.00 | 0.37 | 0.23 | 90 | 1008.8 |
| 20260506165702 | 51 | 76 | 0.0 | 3.0 | 0.00 | 0.37 | 0.23 | 90 | 1008.8 |
| 20260506165501 | 50 | 46 | 1.0 | 3.0 | 0.00 | 0.37 | 0.23 | 91 | 1008.9 |
| 20260506165301 | 50 | 27 | 0.0 | 4.0 | 0.00 | 0.37 | 0.23 | 91 | 1008.9 |
| 20260506165101 | 50 | 27 | 0.0 | 4.0 | 0.00 | 0.37 | 0.23 | 92 | 1009.0 |
| 20260506164900 | 50 | 27 | 1.0 | 4.0 | 0.00 | 0.37 | 0.23 | 92 | 1009.0 |
| 20260506164700 | 50 | 19 | 1.0 | 4.0 | 0.00 | 0.37 | 0.23 | 91 | 1009.1 |
| 20260506164500 | 50 | 14 | 1.0 | 4.0 | 0.00 | 0.37 | 0.23 | 91 | 1009.1 |
| 20260506164259 | 50 | 14 | 1.0 | 4.0 | 0.00 | 0.37 | 0.23 | 91 | 1009.1 |
| 20260506164100 | 50 | 56 | 2.0 | 4.0 | 0.00 | 0.37 | 0.23 | 91 | 1009.1 |
| 20260506163859 | 50 | 79 | 1.0 | 4.0 | 0.00 | 0.37 | 0.23 | 90 | 1009.0 |
| 20260506163659 | 50 | 34 | 0.0 | 4.0 | 0.00 | 0.37 | 0.23 | 90 | 1009.0 |
| 20260506163458 | 50 | 34 | 1.0 | 4.0 | 0.00 | 0.37 | 0.23 | 90 | 1009.1 |
| 20260506163258 | 50 | 34 | 1.0 | 4.0 | 0.00 | 0.37 | 0.23 | 90 | 1009.1 |
| 20260506163058 | 50 | 34 | 0.0 | 5.0 | 0.00 | 0.37 | 0.23 | 91 | 1009.1 |
| 20260506162857 | 50 | 52 | 1.0 | 5.0 | 0.00 | 0.37 | 0.23 | 90 | 1009.1 |
| 20260506162657 | 50 | 44 | 1.0 | 5.0 | 0.00 | 0.37 | 0.23 | 90 | 1009.0 |
| 20260506162457 | 50 | 24 | 2.0 | 5.0 | 0.00 | 0.37 | 0.23 | 90 | 1009.1 |
| 20260506162256 | 51 | 45 | 1.0 | 5.0 | 0.00 | 0.37 | 0.23 | 90 | 1009.0 |
| 20260506162056 | 51 | 46 | 0.0 | 5.0 | 0.00 | 0.37 | 0.23 | 90 | 1009.0 |
| 20260506161856 | 51 | 45 | 0.0 | 5.0 | 0.00 | 0.37 | 0.23 | 90 | 1009.1 |
| 20260506161656 | 51 | 42 | 1.0 | 5.0 | 0.00 | 0.37 | 0.23 | 90 | 1009.1 |
| 20260506161455 | 51 | 31 | 1.0 | 5.0 | 0.00 | 0.37 | 0.23 | 90 | 1009.0 |
| 20260506161255 | 51 | 31 | 2.0 | 5.0 | 0.00 | 0.37 | 0.23 | 90 | 1009.0 |
| 20260506161055 | 51 | 28 | 2.0 | 5.0 | 0.00 | 0.37 | 0.23 | 89 | 1009.0 |
| 20260506160854 | 51 | 28 | 1.0 | 5.0 | 0.00 | 0.37 | 0.23 | 89 | 1009.0 |
| 20260506160654 | 51 | 14 | 2.0 | 5.0 | 0.00 | 0.37 | 0.23 | 89 | 1009.1 |
| 20260506160454 | 52 | 6 | 2.0 | 5.0 | 0.00 | 0.37 | 0.23 | 89 | 1009.0 |
| 20260506160253 | 52 | 2 | 1.0 | 5.0 | 0.00 | 0.37 | 0.23 | 90 | 1008.9 |
| 20260506160053 | 52 | 1 | 1.0 | 4.0 | 0.00 | 0.37 | 0.23 | 90 | 1008.9 |
| 20260506155853 | 51 | 1 | 1.0 | 4.0 | 0.00 | 0.37 | 0.23 | 90 | 1008.9 |
| 20260506155653 | 51 | 1 | 1.0 | 4.0 | 0.00 | 0.37 | 0.23 | 91 | 1008.9 |
| 20260506155452 | 51 | 1 | 1.0 | 4.0 | 0.00 | 0.37 | 0.23 | 91 | 1009.0 |
| 20260506155252 | 51 | 1 | 1.0 | 4.0 | 0.00 | 0.37 | 0.23 | 91 | 1009.0 |
| 20260506155052 | 51 | 1 | 1.0 | 4.0 | 0.00 | 0.37 | 0.23 | 92 | 1009.0 |
| 20260506154851 | 50 | 2 | 1.0 | 4.0 | 0.00 | 0.37 | 0.23 | 92 | 1009.0 |
| 20260506154651 | 50 | 37 | 1.0 | 5.0 | 0.00 | 0.37 | 0.23 | 93 | 1009.2 |
| 20260506154451 | 50 | 46 | 2.0 | 5.0 | 0.00 | 0.37 | 0.23 | 92 | 1009.1 |
| 20260506154250 | 50 | 39 | 1.0 | 5.0 | 0.00 | 0.37 | 0.23 | 92 | 1009.1 |
| 20260506154050 | 50 | 35 | 2.0 | 5.0 | 0.00 | 0.37 | 0.23 | 92 | 1009.2 |
| 20260506153850 | 50 | 38 | 1.0 | 5.0 | 0.00 | 0.37 | 0.23 | 93 | 1009.3 |
| 20260506153650 | 50 | 39 | 0.0 | 4.0 | 0.00 | 0.37 | 0.23 | 93 | 1009.3 |
| 20260506153449 | 50 | 39 | 0.0 | 5.0 | 0.00 | 0.37 | 0.23 | 94 | 1009.2 |
| 20260506153249 | 50 | 39 | 1.0 | 5.0 | 0.00 | 0.37 | 0.23 | 94 | 1009.2 |
| 20260506153049 | 49 | 36 | 1.0 | 5.0 | 0.00 | 0.37 | 0.23 | 94 | 1009.2 |
| 20260506152848 | 49 | 35 | 1.0 | 5.0 | 0.00 | 0.37 | 0.23 | 94 | 1009.2 |
| 20260506152648 | 49 | 45 | 1.0 | 5.0 | 0.00 | 0.37 | 0.23 | 94 | 1009.1 |
| 20260506152448 | 49 | 353 | 0.0 | 4.0 | 0.00 | 0.37 | 0.23 | 94 | 1009.0 |
| 20260506152247 | 49 | 353 | 1.0 | 4.0 | 0.00 | 0.37 | 0.23 | 94 | 1009.1 |
| 20260506152047 | 49 | 353 | 2.0 | 4.0 | 0.00 | 0.37 | 0.23 | 94 | 1009.1 |
| 20260506151847 | 49 | 352 | 1.0 | 4.0 | 0.00 | 0.37 | 0.23 | 95 | 1009.1 |
| 20260506151647 | 49 | 352 | 1.0 | 4.0 | 0.00 | 0.37 | 0.23 | 96 | 1009.0 |
| 20260506151446 | 49 | 352 | 1.0 | 4.0 | 0.00 | 0.37 | 0.23 | 96 | 1009.0 |
| 20260506151246 | 49 | 352 | 0.0 | 4.0 | 0.00 | 0.37 | 0.23 | 97 | 1009.0 |
| 20260506151046 | 49 | 360 | 0.0 | 4.0 | 0.00 | 0.37 | 0.23 | 97 | 1008.9 |
| 20260506150845 | 48 | 35 | 1.0 | 4.0 | 0.00 | 0.37 | 0.23 | 98 | 1008.9 |
| 20260506150645 | 48 | 348 | 1.0 | 3.0 | 0.00 | 0.37 | 0.23 | 98 | 1009.0 |
| 20260506150445 | 48 | 21 | 0.0 | 3.0 | 0.00 | 0.37 | 0.23 | 98 | 1008.9 |
| 20260506150244 | 48 | 0 | 0.0 | 2.0 | 0.00 | 0.37 | 0.23 | 98 | 1008.9 |
| 20260506150044 | 47 | 0 | 0.0 | 2.0 | 0.00 | 0.37 | 0.23 | 98 | 1008.8 |
| 20260506145844 | 47 | 0 | 0.0 | 2.0 | 0.00 | 0.37 | 0.23 | 98 | 1008.9 |
| 20260506145644 | 47 | 0 | 0.0 | 2.0 | 0.00 | 0.37 | 0.23 | 98 | 1008.9 |
| 20260506145443 | 47 | 98 | 0.0 | 2.0 | 0.00 | 0.37 | 0.23 | 98 | 1008.8 |
| 20260506145243 | 47 | 98 | 0.0 | 4.0 | 0.00 | 0.37 | 0.23 | 98 | 1008.8 |
| 20260506145043 | 47 | 98 | 1.0 | 4.0 | 0.00 | 0.37 | 0.23 | 98 | 1008.8 |
| 20260506144842 | 46 | 97 | 0.0 | 4.0 | 0.00 | 0.37 | 0.23 | 98 | 1008.7 |
| 20260506144642 | 46 | 86 | 1.0 | 4.0 | 0.00 | 0.37 | 0.23 | 98 | 1008.7 |
| 20260506144442 | 46 | 64 | 1.0 | 4.0 | 0.00 | 0.37 | 0.23 | 98 | 1008.7 |
| 20260506144241 | 46 | 55 | 0.0 | 3.0 | 0.00 | 0.37 | 0.23 | 98 | 1008.6 |
| 20260506144041 | 46 | 55 | 1.0 | 4.0 | 0.00 | 0.37 | 0.23 | 98 | 1008.6 |
| 20260506143841 | 46 | 55 | 1.0 | 4.0 | 0.00 | 0.37 | 0.23 | 98 | 1008.7 |
| 20260506143641 | 46 | 57 | 1.0 | 4.0 | 0.00 | 0.37 | 0.23 | 98 | 1008.7 |
| 20260506143440 | 46 | 60 | 1.0 | 4.0 | 0.00 | 0.37 | 0.23 | 98 | 1008.7 |
| 20260506143240 | 46 | 60 | 0.0 | 4.0 | 0.00 | 0.37 | 0.23 | 98 | 1008.7 |
| 20260506143040 | 46 | 0 | 0.0 | 0.0 | 0.00 | 0.37 | 0.23 | 98 | 1008.7 |
| 20260506142839 | 46 | 0 | 0.0 | 2.0 | 0.00 | 0.37 | 0.23 | 98 | 1008.7 |
| 20260506142639 | 46 | 0 | 0.0 | 2.0 | 0.00 | 0.37 | 0.23 | 98 | 1008.7 |
| 20260506142439 | 46 | 0 | 0.0 | 2.0 | 0.00 | 0.37 | 0.23 | 98 | 1008.7 |
| 20260506142238 | 46 | 60 | 0.0 | 2.0 | 0.00 | 0.37 | 0.23 | 98 | 1008.7 |
| 20260506142038 | 46 | 60 | 0.0 | 2.0 | 0.00 | 0.37 | 0.23 | 98 | 1008.7 |
| 20260506141838 | 46 | 60 | 0.0 | 2.0 | 0.00 | 0.37 | 0.23 | 98 | 1008.7 |
| 20260506141638 | 46 | 60 | 0.0 | 3.0 | 0.00 | 0.37 | 0.23 | 98 | 1008.8 |
| 20260506141437 | 46 | 60 | 0.0 | 3.0 | 0.00 | 0.37 | 0.23 | 98 | 1008.7 |
| 20260506141237 | 46 | 60 | 0.0 | 3.0 | 0.00 | 0.37 | 0.23 | 98 | 1008.7 |
| 20260506141037 | 45 | 60 | 1.0 | 3.0 | 0.00 | 0.37 | 0.23 | 98 | 1008.8 |
| 20260506140836 | 45 | 60 | 1.0 | 3.0 | 0.00 | 0.37 | 0.23 | 98 | 1008.8 |
| 20260506140636 | 45 | 60 | 1.0 | 3.0 | 0.00 | 0.37 | 0.23 | 98 | 1008.8 |
| 20260506140436 | 45 | 60 | 0.0 | 3.0 | 0.00 | 0.37 | 0.23 | 98 | 1008.8 |
| 20260506140235 | 45 | 60 | 1.0 | 3.0 | 0.00 | 0.37 | 0.23 | 98 | 1008.8 |
| 20260506140035 | 45 | 60 | 1.0 | 3.0 | 0.00 | 0.37 | 0.23 | 98 | 1008.9 |
| 20260506135835 | 45 | 60 | 1.0 | 3.0 | 0.00 | 0.37 | 0.23 | 98 | 1008.8 |
| 20260506135634 | 45 | 59 | 1.0 | 3.0 | 0.00 | 0.37 | 0.23 | 98 | 1008.7 |
| 20260506135434 | 46 | 58 | 0.0 | 2.0 | 0.00 | 0.37 | 0.23 | 98 | 1008.7 |
| 20260506135234 | 46 | 58 | 0.0 | 2.0 | 0.00 | 0.37 | 0.23 | 98 | 1008.7 |
| 20260506135034 | 45 | 58 | 0.0 | 2.0 | 0.00 | 0.37 | 0.23 | 98 | 1008.7 |
| 20260506134833 | 45 | 58 | 1.0 | 2.0 | 0.00 | 0.37 | 0.23 | 98 | 1008.6 |
| 20260506134633 | 45 | 58 | 0.0 | 2.0 | 0.00 | 0.37 | 0.23 | 98 | 1008.6 |
| 20260506134433 | 45 | 58 | 0.0 | 2.0 | 0.00 | 0.37 | 0.23 | 98 | 1008.6 |
| 20260506134232 | 45 | 58 | 0.0 | 2.0 | 0.00 | 0.37 | 0.23 | 98 | 1008.6 |
| 20260506134032 | 45 | 50 | 0.0 | 2.0 | 0.00 | 0.37 | 0.23 | 98 | 1008.6 |
| 20260506133832 | 45 | 46 | 0.0 | 2.0 | 0.00 | 0.37 | 0.23 | 98 | 1008.5 |
| 20260506133631 | 45 | 47 | 0.0 | 2.0 | 0.00 | 0.37 | 0.23 | 98 | 1008.5 |
| 20260506133431 | 45 | 35 | 0.0 | 3.0 | 0.00 | 0.37 | 0.23 | 98 | 1008.5 |
| 20260506133231 | 45 | 348 | 1.0 | 3.0 | 0.00 | 0.37 | 0.23 | 98 | 1008.6 |
| 20260506133031 | 45 | 341 | 0.0 | 3.0 | 0.00 | 0.37 | 0.23 | 98 | 1008.6 |
| 20260506132830 | 45 | 341 | 0.0 | 3.0 | 0.00 | 0.37 | 0.23 | 98 | 1008.6 |
| 20260506132630 | 45 | 32 | 0.0 | 3.0 | 0.00 | 0.37 | 0.23 | 98 | 1008.6 |
| 20260506132430 | 45 | 45 | 1.0 | 3.0 | 0.00 | 0.37 | 0.23 | 98 | 1008.5 |
| 20260506132229 | 45 | 54 | 0.0 | 2.0 | 0.00 | 0.37 | 0.23 | 98 | 1008.5 |
| 20260506132029 | 45 | 55 | 1.0 | 2.0 | 0.00 | 0.37 | 0.23 | 98 | 1008.5 |
| 20260506131829 | 45 | 39 | 0.0 | 3.0 | 0.00 | 0.37 | 0.23 | 98 | 1008.4 |
| 20260506131628 | 45 | 27 | 0.0 | 3.0 | 0.00 | 0.37 | 0.23 | 98 | 1008.5 |
| 20260506131428 | 45 | 27 | 1.0 | 3.0 | 0.00 | 0.37 | 0.23 | 98 | 1008.5 |
| 20260506131228 | 45 | 27 | 1.0 | 3.0 | 0.00 | 0.37 | 0.23 | 98 | 1008.5 |
| 20260506131028 | 45 | 27 | 0.0 | 3.0 | 0.00 | 0.37 | 0.23 | 98 | 1008.4 |
| 20260506130827 | 45 | 27 | 0.0 | 3.0 | 0.00 | 0.37 | 0.23 | 98 | 1008.5 |
| 20260506130627 | 45 | 27 | 0.0 | 3.0 | 0.00 | 0.37 | 0.23 | 98 | 1008.5 |
| 20260506130427 | 45 | 0 | 0.0 | 2.0 | 0.00 | 0.37 | 0.23 | 98 | 1008.4 |
| 20260506130226 | 45 | 0 | 0.0 | 2.0 | 0.00 | 0.37 | 0.23 | 98 | 1008.3 |
| 20260506130026 | 45 | 27 | 0.0 | 2.0 | 0.00 | 0.37 | 0.23 | 98 | 1008.4 |
| 20260506125826 | 45 | 27 | 0.0 | 2.0 | 0.00 | 0.37 | 0.23 | 98 | 1008.3 |
| 20260506125625 | 45 | 27 | 0.0 | 3.0 | 0.00 | 0.37 | 0.23 | 98 | 1008.2 |
| 20260506125425 | 45 | 27 | 0.0 | 3.0 | 0.00 | 0.37 | 0.23 | 98 | 1008.3 |
| 20260506125225 | 45 | 27 | 0.0 | 3.0 | 0.00 | 0.37 | 0.23 | 98 | 1008.3 |
| 20260506125025 | 45 | 27 | 0.0 | 3.0 | 0.00 | 0.37 | 0.23 | 98 | 1008.4 |
| 20260506124824 | 45 | 27 | 0.0 | 3.0 | 0.00 | 0.37 | 0.23 | 98 | 1008.5 |
| 20260506124624 | 45 | 27 | 1.0 | 2.0 | 0.00 | 0.37 | 0.23 | 98 | 1008.4 |
| 20260506124424 | 45 | 27 | 1.0 | 2.0 | 0.00 | 0.37 | 0.23 | 98 | 1008.3 |
| 20260506124223 | 45 | 28 | 0.0 | 2.0 | 0.00 | 0.37 | 0.23 | 98 | 1008.5 |
| 20260506124023 | 45 | 41 | 0.0 | 2.0 | 0.00 | 0.37 | 0.23 | 98 | 1008.4 |
| 20260506123823 | 45 | 41 | 0.0 | 2.0 | 0.00 | 0.37 | 0.23 | 98 | 1008.4 |
| 20260506123622 | 45 | 41 | 0.0 | 2.0 | 0.00 | 0.37 | 0.23 | 98 | 1008.4 |
| 20260506123422 | 45 | 41 | 0.0 | 2.0 | 0.01 | 0.37 | 0.23 | 98 | 1008.4 |
| 20260506123222 | 45 | 0 | 0.0 | 2.0 | 0.01 | 0.37 | 0.23 | 98 | 1008.4 |
| 20260506123022 | 45 | 0 | 0.0 | 2.0 | 0.01 | 0.37 | 0.23 | 98 | 1008.4 |
| 20260506122821 | 45 | 41 | 0.0 | 2.0 | 0.01 | 0.37 | 0.23 | 98 | 1008.3 |
| 20260506122621 | 45 | 41 | 0.0 | 2.0 | 0.01 | 0.37 | 0.23 | 98 | 1008.3 |
| 20260506122421 | 45 | 41 | 0.0 | 2.0 | 0.01 | 0.37 | 0.23 | 98 | 1008.2 |
| 20260506122220 | 45 | 0 | 0.0 | 0.0 | 0.01 | 0.37 | 0.23 | 98 | 1008.3 |
| 20260506122020 | 45 | 0 | 0.0 | 0.0 | 0.01 | 0.37 | 0.23 | 98 | 1008.3 |
| 20260506121820 | 45 | 0 | 0.0 | 0.0 | 0.01 | 0.37 | 0.23 | 98 | 1008.3 |
| 20260506121619 | 45 | 0 | 0.0 | 0.0 | 0.01 | 0.37 | 0.23 | 98 | 1008.2 |
| 20260506121419 | 45 | 0 | 0.0 | 0.0 | 0.01 | 0.37 | 0.23 | 98 | 1008.2 |
| 20260506121219 | 45 | 0 | 0.0 | 2.0 | 0.01 | 0.37 | 0.23 | 98 | 1008.1 |
| 20260506121019 | 45 | 0 | 0.0 | 2.0 | 0.01 | 0.37 | 0.23 | 98 | 1008.1 |
| 20260506120818 | 45 | 0 | 0.0 | 2.0 | 0.01 | 0.37 | 0.23 | 98 | 1008.1 |
| 20260506120618 | 45 | 42 | 0.0 | 2.0 | 0.01 | 0.37 | 0.23 | 98 | 1008.1 |
| 20260506120418 | 45 | 42 | 0.0 | 2.0 | 0.01 | 0.37 | 0.23 | 98 | 1008.1 |
| 20260506120217 | 45 | 42 | 0.0 | 1.0 | 0.01 | 0.37 | 0.23 | 98 | 1007.9 |
| 20260506120017 | 45 | 0 | 0.0 | 1.0 | 0.01 | 0.37 | 0.23 | 98 | 1007.9 |
| 20260506115817 | 45 | 0 | 0.0 | 2.0 | 0.01 | 0.37 | 0.23 | 98 | 1007.9 |
| 20260506115616 | 45 | 0 | 0.0 | 2.0 | 0.01 | 0.37 | 0.23 | 98 | 1007.9 |
| 20260506115416 | 45 | 0 | 0.0 | 2.0 | 0.01 | 0.37 | 0.23 | 98 | 1008.0 |
| 20260506115216 | 45 | 40 | 0.0 | 2.0 | 0.01 | 0.37 | 0.23 | 98 | 1008.0 |
| 20260506115015 | 45 | 40 | 0.0 | 2.0 | 0.01 | 0.37 | 0.23 | 98 | 1008.0 |
| 20260506114815 | 45 | 40 | 0.0 | 2.0 | 0.01 | 0.37 | 0.23 | 98 | 1008.0 |
| 20260506114615 | 45 | 40 | 0.0 | 2.0 | 0.01 | 0.37 | 0.23 | 98 | 1008.0 |
| 20260506114415 | 45 | 40 | 0.0 | 2.0 | 0.01 | 0.37 | 0.23 | 98 | 1008.1 |
| 20260506114214 | 45 | 40 | 0.0 | 2.0 | 0.01 | 0.37 | 0.23 | 98 | 1008.2 |
| 20260506114014 | 45 | 40 | 0.0 | 2.0 | 0.01 | 0.37 | 0.23 | 98 | 1008.2 |
| 20260506113814 | 45 | 41 | 0.0 | 2.0 | 0.01 | 0.37 | 0.23 | 98 | 1008.2 |
| 20260506113613 | 45 | 0 | 0.0 | 0.0 | 0.01 | 0.37 | 0.23 | 98 | 1008.1 |
| 20260506113413 | 45 | 0 | 0.0 | 0.0 | 0.00 | 0.36 | 0.22 | 98 | 1008.0 |
| 20260506113213 | 45 | 0 | 0.0 | 0.0 | 0.00 | 0.36 | 0.22 | 98 | 1008.1 |
| 20260506113012 | 45 | 0 | 0.0 | 0.0 | 0.00 | 0.36 | 0.22 | 98 | 1008.0 |
| 20260506112812 | 45 | 0 | 0.0 | 0.0 | 0.00 | 0.36 | 0.22 | 98 | 1008.0 |
| 20260506112612 | 45 | 0 | 0.0 | 1.0 | 0.00 | 0.36 | 0.22 | 98 | 1008.0 |
| 20260506112412 | 45 | 0 | 0.0 | 2.0 | 0.00 | 0.36 | 0.22 | 98 | 1007.9 |
| 20260506112211 | 45 | 0 | 0.0 | 2.0 | 0.00 | 0.36 | 0.22 | 98 | 1007.8 |
| 20260506112011 | 45 | 41 | 0.0 | 2.0 | 0.00 | 0.36 | 0.22 | 98 | 1007.6 |
| 20260506111811 | 45 | 40 | 0.0 | 2.0 | 0.00 | 0.36 | 0.22 | 98 | 1007.6 |
| 20260506111610 | 45 | 40 | 0.0 | 3.0 | 0.00 | 0.36 | 0.22 | 98 | 1007.6 |
| 20260506111410 | 45 | 40 | 0.0 | 3.0 | 0.00 | 0.36 | 0.22 | 98 | 1007.5 |
| 20260506111210 | 45 | 40 | 0.0 | 3.0 | 0.00 | 0.36 | 0.22 | 98 | 1007.5 |
| 20260506111009 | 45 | 40 | 0.0 | 3.0 | 0.00 | 0.36 | 0.22 | 98 | 1007.5 |
| 20260506110809 | 45 | 42 | 0.0 | 3.0 | 0.00 | 0.36 | 0.22 | 98 | 1007.5 |
| 20260506110609 | 45 | 49 | 0.0 | 2.0 | 0.00 | 0.36 | 0.22 | 98 | 1007.4 |
| 20260506110409 | 45 | 0 | 0.0 | 1.0 | 0.00 | 0.36 | 0.22 | 98 | 1007.3 |
| 20260506110208 | 45 | 0 | 0.0 | 2.0 | 0.00 | 0.36 | 0.22 | 98 | 1007.2 |
| 20260506110008 | 45 | 0 | 0.0 | 2.0 | 0.00 | 0.36 | 0.22 | 98 | 1007.1 |
| 20260506105808 | 45 | 1 | 0.0 | 2.0 | 0.00 | 0.36 | 0.22 | 98 | 1007.1 |
| 20260506105607 | 44 | 5 | 0.0 | 2.0 | 0.00 | 0.36 | 0.22 | 98 | 1007.0 |
| 20260506105407 | 45 | 9 | 0.0 | 2.0 | 0.00 | 0.36 | 0.22 | 98 | 1007.0 |
| 20260506105207 | 44 | 9 | 0.0 | 2.0 | 0.00 | 0.36 | 0.22 | 98 | 1007.0 |
| 20260506105006 | 44 | 0 | 0.0 | 2.0 | 0.00 | 0.36 | 0.22 | 98 | 1007.0 |
| 20260506104806 | 44 | 6 | 0.0 | 2.0 | 0.00 | 0.36 | 0.22 | 98 | 1007.1 |
| 20260506104606 | 44 | 6 | 0.0 | 3.0 | 0.01 | 0.36 | 0.22 | 98 | 1007.1 |
| 20260506104406 | 44 | 0 | 0.0 | 3.0 | 0.01 | 0.36 | 0.22 | 98 | 1007.1 |
| 20260506104205 | 44 | 24 | 0.0 | 3.0 | 0.01 | 0.36 | 0.22 | 98 | 1007.0 |
| 20260506104005 | 44 | 21 | 0.0 | 3.0 | 0.01 | 0.36 | 0.22 | 98 | 1007.1 |
| 20260506103805 | 44 | 282 | 0.0 | 3.0 | 0.01 | 0.36 | 0.22 | 98 | 1007.1 |
| 20260506103604 | 44 | 282 | 0.0 | 2.0 | 0.01 | 0.36 | 0.22 | 98 | 1007.2 |
| 20260506103404 | 44 | 282 | 1.0 | 2.0 | 0.01 | 0.36 | 0.22 | 98 | 1007.3 |
| 20260506103204 | 44 | 282 | 0.0 | 2.0 | 0.01 | 0.36 | 0.22 | 98 | 1007.4 |
| 20260506103003 | 44 | 283 | 0.0 | 2.0 | 0.02 | 0.36 | 0.22 | 98 | 1007.3 |
| 20260506102803 | 44 | 0 | 0.0 | 2.0 | 0.02 | 0.36 | 0.22 | 98 | 1007.5 |
| 20260506102603 | 44 | 282 | 0.0 | 2.0 | 0.02 | 0.36 | 0.22 | 98 | 1007.7 |
| 20260506102403 | 44 | 282 | 0.0 | 2.0 | 0.02 | 0.36 | 0.22 | 98 | 1007.6 |
| 20260506102202 | 44 | 283 | 0.0 | 1.0 | 0.02 | 0.36 | 0.22 | 98 | 1007.7 |
| 20260506102002 | 44 | 0 | 0.0 | 3.0 | 0.02 | 0.36 | 0.22 | 98 | 1007.8 |
| 20260506101802 | 44 | 0 | 0.0 | 3.0 | 0.02 | 0.36 | 0.22 | 98 | 1007.8 |
| 20260506101237 | 44 | 282 | 0.0 | 3.0 | 0.02 | 0.36 | 0.22 | 97 | 1007.6 |
| 20260506101036 | 44 | 282 | 0.0 | 3.0 | 0.02 | 0.36 | 0.22 | 97 | 1007.6 |
| 20260506100836 | 44 | 282 | 0.0 | 1.0 | 0.02 | 0.36 | 0.22 | 97 | 1007.6 |
| 20260506100636 | 44 | 282 | 0.0 | 1.0 | 0.02 | 0.36 | 0.22 | 97 | 1007.6 |
| 20260506100436 | 44 | 282 | 0.0 | 1.0 | 0.02 | 0.36 | 0.22 | 97 | 1007.6 |
| 20260506100235 | 44 | 0 | 0.0 | 2.0 | 0.02 | 0.36 | 0.22 | 97 | 1007.2 |
| 20260506100035 | 44 | 283 | 0.0 | 2.0 | 0.02 | 0.36 | 0.22 | 97 | 1007.0 |
| 20260506095835 | 44 | 282 | 0.0 | 2.0 | 0.02 | 0.36 | 0.22 | 97 | 1006.9 |
| 20260506095634 | 44 | 283 | 1.0 | 3.0 | 0.02 | 0.36 | 0.22 | 97 | 1006.9 |
| 20260506095434 | 44 | 20 | 0.0 | 3.0 | 0.02 | 0.36 | 0.22 | 97 | 1006.9 |
| 20260506095234 | 44 | 87 | 0.0 | 3.0 | 0.02 | 0.36 | 0.22 | 97 | 1007.1 |
| 20260506095033 | 44 | 0 | 0.0 | 3.0 | 0.02 | 0.36 | 0.22 | 97 | 1007.2 |
| 20260506094833 | 44 | 80 | 1.0 | 3.0 | 0.01 | 0.35 | 0.21 | 97 | 1007.1 |
| 20260506094633 | 44 | 44 | 0.0 | 5.0 | 0.01 | 0.35 | 0.21 | 97 | 1007.2 |
| 20260506094433 | 44 | 13 | 0.0 | 5.0 | 0.01 | 0.35 | 0.21 | 97 | 1007.2 |
| 20260506094232 | 44 | 47 | 0.0 | 5.0 | 0.01 | 0.35 | 0.21 | 97 | 1007.3 |
| 20260506094032 | 45 | 88 | 1.0 | 5.0 | 0.01 | 0.35 | 0.21 | 97 | 1007.3 |
| 20260506093832 | 45 | 82 | 1.0 | 5.0 | 0.01 | 0.35 | 0.21 | 97 | 1007.3 |
| 20260506093631 | 45 | 75 | 1.0 | 4.0 | 0.02 | 0.35 | 0.21 | 97 | 1007.4 |
| 20260506093431 | 45 | 270 | 0.0 | 2.0 | 0.02 | 0.35 | 0.21 | 97 | 1007.5 |
| 20260506093231 | 45 | 265 | 0.0 | 2.0 | 0.02 | 0.35 | 0.21 | 97 | 1007.7 |
| 20260506093030 | 45 | 260 | 0.0 | 2.0 | 0.01 | 0.34 | 0.20 | 97 | 1007.8 |
| 20260506092830 | 45 | 260 | 0.0 | 2.0 | 0.01 | 0.34 | 0.20 | 97 | 1007.9 |
| 20260506092630 | 45 | 260 | 0.0 | 2.0 | 0.01 | 0.34 | 0.20 | 97 | 1007.8 |
| 20260506092430 | 45 | 260 | 0.0 | 1.0 | 0.01 | 0.34 | 0.20 | 97 | 1007.8 |
| 20260506092229 | 45 | 0 | 0.0 | 0.0 | 0.01 | 0.34 | 0.20 | 97 | 1007.8 |
| 20260506092029 | 45 | 0 | 0.0 | 0.0 | 0.01 | 0.34 | 0.20 | 97 | 1007.9 |
| 20260506091829 | 45 | 0 | 0.0 | 0.0 | 0.01 | 0.34 | 0.20 | 97 | 1007.7 |
| 20260506091628 | 45 | 0 | 0.0 | 0.0 | 0.01 | 0.34 | 0.20 | 97 | 1007.7 |
| 20260506091428 | 45 | 0 | 0.0 | 1.0 | 0.01 | 0.34 | 0.20 | 97 | 1007.7 |
| 20260506091228 | 45 | 0 | 0.0 | 1.0 | 0.01 | 0.34 | 0.20 | 97 | 1007.7 |
| 20260506091027 | 45 | 0 | 0.0 | 1.0 | 0.01 | 0.34 | 0.20 | 97 | 1007.7 |
| 20260506090827 | 45 | 260 | 0.0 | 1.0 | 0.02 | 0.34 | 0.20 | 97 | 1007.6 |
| 20260506090627 | 45 | 260 | 0.0 | 1.0 | 0.02 | 0.34 | 0.20 | 97 | 1007.5 |
| 20260506090427 | 45 | 260 | 0.0 | 1.0 | 0.02 | 0.34 | 0.20 | 97 | 1007.5 |
| 20260506090226 | 45 | 0 | 0.0 | 0.0 | 0.02 | 0.34 | 0.20 | 97 | 1007.6 |
| 20260506090026 | 45 | 0 | 0.0 | 0.0 | 0.02 | 0.34 | 0.20 | 97 | 1007.6 |
| 20260506085826 | 45 | 0 | 0.0 | 0.0 | 0.02 | 0.34 | 0.20 | 97 | 1007.6 |
| 20260506085625 | 45 | 0 | 0.0 | 2.0 | 0.02 | 0.34 | 0.20 | 97 | 1007.5 |
| 20260506085425 | 45 | 0 | 0.0 | 2.0 | 0.02 | 0.34 | 0.20 | 97 | 1007.5 |
| 20260506085225 | 45 | 0 | 0.0 | 2.0 | 0.02 | 0.34 | 0.20 | 97 | 1007.5 |
| 20260506085024 | 45 | 260 | 0.0 | 2.0 | 0.03 | 0.34 | 0.20 | 97 | 1007.6 |
| 20260506084824 | 45 | 260 | 0.0 | 2.0 | 0.03 | 0.34 | 0.20 | 97 | 1007.7 |
| 20260506084624 | 45 | 0 | 0.0 | 2.0 | 0.03 | 0.34 | 0.20 | 97 | 1007.8 |
| 20260506084424 | 45 | 0 | 0.0 | 2.0 | 0.03 | 0.34 | 0.20 | 97 | 1007.8 |
| 20260506084223 | 45 | 260 | 0.0 | 2.0 | 0.03 | 0.34 | 0.20 | 96 | 1007.9 |
| 20260506084023 | 45 | 256 | 0.0 | 2.0 | 0.03 | 0.34 | 0.20 | 96 | 1007.8 |
| 20260506083823 | 45 | 253 | 0.0 | 2.0 | 0.03 | 0.34 | 0.20 | 96 | 1007.9 |
| 20260506083622 | 45 | 253 | 0.0 | 2.0 | 0.02 | 0.33 | 0.19 | 96 | 1007.9 |
| 20260506083422 | 45 | 253 | 0.0 | 2.0 | 0.03 | 0.33 | 0.19 | 96 | 1007.8 |
| 20260506083222 | 45 | 253 | 0.0 | 2.0 | 0.03 | 0.33 | 0.19 | 96 | 1007.8 |
| 20260506083021 | 45 | 253 | 0.0 | 2.0 | 0.03 | 0.33 | 0.19 | 96 | 1007.9 |
| 20260506082821 | 45 | 253 | 0.0 | 2.0 | 0.03 | 0.33 | 0.19 | 96 | 1007.8 |
| 20260506082621 | 45 | 253 | 0.0 | 2.0 | 0.03 | 0.33 | 0.19 | 96 | 1007.9 |
| 20260506082420 | 45 | 0 | 0.0 | 2.0 | 0.03 | 0.33 | 0.19 | 96 | 1008.0 |
| 20260506082220 | 45 | 0 | 0.0 | 2.0 | 0.03 | 0.33 | 0.19 | 96 | 1007.9 |
| 20260506082020 | 45 | 252 | 0.0 | 2.0 | 0.03 | 0.33 | 0.19 | 96 | 1007.9 |
| 20260506081820 | 45 | 252 | 0.0 | 2.0 | 0.03 | 0.33 | 0.19 | 96 | 1007.9 |
| 20260506081619 | 45 | 0 | 0.0 | 0.0 | 0.03 | 0.33 | 0.19 | 96 | 1007.9 |
| 20260506081419 | 45 | 0 | 0.0 | 0.0 | 0.03 | 0.33 | 0.19 | 96 | 1008.0 |
| 20260506081219 | 45 | 0 | 0.0 | 0.0 | 0.03 | 0.33 | 0.19 | 96 | 1007.9 |
| 20260506081018 | 45 | 0 | 0.0 | 0.0 | 0.03 | 0.33 | 0.19 | 96 | 1007.9 |
| 20260506080818 | 45 | 0 | 0.0 | 0.0 | 0.02 | 0.32 | 0.18 | 95 | 1007.9 |
| 20260506080618 | 45 | 0 | 0.0 | 0.0 | 0.02 | 0.32 | 0.18 | 95 | 1007.8 |
| 20260506080417 | 45 | 0 | 0.0 | 0.0 | 0.02 | 0.32 | 0.18 | 95 | 1007.7 |
| 20260506080217 | 45 | 0 | 0.0 | 0.0 | 0.02 | 0.32 | 0.18 | 95 | 1007.7 |
| 20260506073413 | 45 | 0 | 0.0 | 0.0 | 0.03 | 0.30 | 0.16 | 95 | 1007.6 |
| 20260506073213 | 45 | 0 | 0.0 | 0.0 | 0.03 | 0.30 | 0.16 | 95 | 1007.5 |
| 20260506073012 | 45 | 0 | 0.0 | 0.0 | 0.04 | 0.30 | 0.16 | 95 | 1007.5 |
| 20260506072812 | 45 | 0 | 0.0 | 1.0 | 0.04 | 0.30 | 0.16 | 95 | 1007.5 |
| 20260506072612 | 45 | 0 | 0.0 | 2.0 | 0.04 | 0.30 | 0.16 | 95 | 1007.5 |
| 20260506072411 | 45 | 0 | 0.0 | 2.0 | 0.04 | 0.30 | 0.16 | 95 | 1007.5 |
| 20260506072211 | 45 | 0 | 0.0 | 2.0 | 0.04 | 0.30 | 0.16 | 95 | 1007.6 |
| 20260506072011 | 45 | 252 | 0.0 | 2.0 | 0.04 | 0.30 | 0.16 | 95 | 1007.5 |
| 20260506071811 | 45 | 252 | 0.0 | 2.0 | 0.05 | 0.30 | 0.16 | 95 | 1007.5 |
| 20260506071610 | 45 | 0 | 0.0 | 0.0 | 0.05 | 0.30 | 0.16 | 95 | 1007.6 |
| 20260506071410 | 45 | 0 | 0.0 | 0.0 | 0.05 | 0.30 | 0.16 | 95 | 1007.7 |
| 20260506071210 | 45 | 0 | 0.0 | 0.0 | 0.05 | 0.30 | 0.16 | 95 | 1007.7 |
| 20260506071009 | 45 | 0 | 0.0 | 0.0 | 0.05 | 0.30 | 0.16 | 95 | 1007.8 |
| 20260506070809 | 45 | 0 | 0.0 | 0.0 | 0.05 | 0.30 | 0.16 | 95 | 1007.8 |
| 20260506070609 | 45 | 0 | 0.0 | 1.0 | 0.05 | 0.30 | 0.16 | 95 | 1007.7 |
| 20260506070408 | 45 | 0 | 0.0 | 1.0 | 0.06 | 0.30 | 0.16 | 95 | 1007.7 |
| 20260506070208 | 45 | 0 | 0.0 | 2.0 | 0.06 | 0.30 | 0.16 | 95 | 1007.8 |
| 20260506062402 | 46 | 0 | 0.0 | 0.0 | 0.06 | 0.26 | 0.12 | 96 | 1007.8 |
| 20260506062202 | 46 | 0 | 0.0 | 0.0 | 0.06 | 0.26 | 0.12 | 96 | 1007.9 |
| 20260506062002 | 46 | 0 | 0.0 | 0.0 | 0.07 | 0.26 | 0.12 | 96 | 1007.9 |
| 20260506061802 | 46 | 0 | 0.0 | 1.0 | 0.06 | 0.25 | 0.11 | 96 | 1007.9 |
| 20260506061601 | 46 | 0 | 0.0 | 1.0 | 0.06 | 0.25 | 0.11 | 96 | 1007.9 |
| 20260506061401 | 46 | 0 | 0.0 | 1.0 | 0.06 | 0.25 | 0.11 | 97 | 1007.8 |
| 20260506061201 | 46 | 228 | 0.0 | 1.0 | 0.07 | 0.25 | 0.11 | 97 | 1007.6 |
| 20260506061000 | 46 | 228 | 0.0 | 1.0 | 0.07 | 0.25 | 0.11 | 97 | 1007.9 |
| 20260506060800 | 46 | 228 | 0.0 | 1.0 | 0.07 | 0.25 | 0.11 | 97 | 1007.9 |
| 20260506060600 | 46 | 228 | 0.0 | 1.0 | 0.07 | 0.25 | 0.11 | 97 | 1007.8 |
| 20260506060359 | 46 | 0 | 0.0 | 1.0 | 0.07 | 0.24 | 0.10 | 97 | 1007.8 |
| 20260506060159 | 46 | 0 | 0.0 | 2.0 | 0.07 | 0.24 | 0.10 | 97 | 1007.9 |
| 20260506051352 | 48 | 0 | 0.0 | 1.0 | 0.05 | 0.19 | 0.05 | 98 | 1008.4 |
| 20260506051152 | 48 | 228 | 0.0 | 1.0 | 0.04 | 0.18 | 0.04 | 98 | 1008.5 |
| 20260506050951 | 48 | 228 | 0.0 | 2.0 | 0.04 | 0.18 | 0.04 | 98 | 1008.5 |
| 20260506050751 | 48 | 0 | 0.0 | 2.0 | 0.04 | 0.18 | 0.04 | 98 | 1008.5 |
| 20260506050551 | 48 | 0 | 0.0 | 2.0 | 0.04 | 0.18 | 0.04 | 98 | 1008.5 |
| 20260506050350 | 48 | 228 | 0.0 | 2.0 | 0.03 | 0.17 | 0.03 | 98 | 1008.5 |
| 20260506050150 | 48 | 228 | 0.0 | 2.0 | 0.03 | 0.17 | 0.03 | 98 | 1008.5 |
| 20260506044948 | 48 | 232 | 1.0 | 3.0 | 0.02 | 0.16 | 0.02 | 98 | 1008.5 |
| 20260506044748 | 48 | 239 | 0.0 | 3.0 | 0.02 | 0.16 | 0.02 | 98 | 1008.6 |
| 20260506044548 | 48 | 239 | 1.0 | 2.0 | 0.01 | 0.15 | 0.01 | 98 | 1008.6 |
| 20260506044347 | 48 | 234 | 1.0 | 4.0 | 0.01 | 0.15 | 0.01 | 98 | 1008.6 |
| 20260506044147 | 48 | 234 | 0.0 | 5.0 | 0.01 | 0.15 | 0.01 | 98 | 1008.6 |
| 20260506043947 | 48 | 234 | 0.0 | 5.0 | 0.01 | 0.15 | 0.01 | 98 | 1008.5 |
| 20260506043746 | 48 | 232 | 1.0 | 5.0 | 0.01 | 0.15 | 0.01 | 98 | 1008.5 |
| 20260506043546 | 48 | 226 | 1.0 | 5.0 | 0.01 | 0.15 | 0.01 | 98 | 1008.6 |
| 20260506043346 | 48 | 222 | 1.0 | 4.0 | 0.01 | 0.15 | 0.01 | 98 | 1008.5 |
| 20260506043146 | 48 | 222 | 1.0 | 4.0 | 0.01 | 0.15 | 0.01 | 98 | 1008.6 |
| 20260506042945 | 48 | 221 | 1.0 | 4.0 | 0.00 | 0.14 | 0.00 | 97 | 1008.6 |
| 20260506042745 | 48 | 219 | 2.0 | 4.0 | 0.00 | 0.14 | 0.00 | 97 | 1008.6 |
| 20260506042545 | 48 | 220 | 1.0 | 4.0 | 0.00 | 0.14 | 0.00 | 97 | 1008.7 |
| 20260506042344 | 48 | 232 | 1.0 | 4.0 | 0.00 | 0.14 | 0.00 | 97 | 1008.7 |
| 20260506042144 | 48 | 241 | 0.0 | 2.0 | 0.00 | 0.14 | 0.00 | 97 | 1008.7 |
| 20260506041944 | 48 | 241 | 0.0 | 3.0 | 0.00 | 0.14 | 0.00 | 97 | 1008.6 |
| 20260506041743 | 48 | 241 | 0.0 | 3.0 | 0.00 | 0.14 | 0.00 | 97 | 1008.6 |
| 20260506041543 | 48 | 241 | 0.0 | 4.0 | 0.00 | 0.14 | 0.00 | 97 | 1008.6 |
| 20260506041343 | 48 | 241 | 0.0 | 4.0 | 0.00 | 0.14 | 0.00 | 97 | 1008.5 |
| 20260506041143 | 48 | 241 | 1.0 | 5.0 | 0.00 | 0.14 | 0.00 | 97 | 1008.5 |
| 20260506040942 | 48 | 237 | 1.0 | 5.0 | 0.00 | 0.14 | 0.00 | 97 | 1008.5 |
| 20260506040742 | 48 | 224 | 1.0 | 5.0 | 0.00 | 0.14 | 0.00 | 97 | 1008.6 |
| 20260506040542 | 48 | 226 | 1.0 | 5.0 | 0.00 | 0.14 | 0.00 | 97 | 1008.5 |
| 20260506040341 | 48 | 226 | 1.0 | 3.0 | 0.00 | 0.14 | 0.00 | 97 | 1008.5 |
| 20260506040141 | 48 | 226 | 1.0 | 3.0 | 0.00 | 0.14 | 0.00 | 97 | 1008.5 |
| 20260506035941 | 48 | 226 | 0.0 | 2.0 | 0.00 | 0.14 | 0.14 | 97 | 1008.5 |
| 20260506035740 | 48 | 227 | 0.0 | 2.0 | 0.00 | 0.14 | 0.14 | 97 | 1008.4 |
| 20260506035540 | 48 | 227 | 0.0 | 3.0 | 0.00 | 0.14 | 0.14 | 97 | 1008.5 |
| 20260506035340 | 48 | 227 | 0.0 | 3.0 | 0.00 | 0.14 | 0.14 | 97 | 1008.5 |
| 20260506035140 | 48 | 227 | 0.0 | 3.0 | 0.00 | 0.14 | 0.14 | 97 | 1008.5 |
| 20260506034939 | 48 | 227 | 0.0 | 3.0 | 0.00 | 0.14 | 0.14 | 97 | 1008.2 |
| 20260506034739 | 48 | 232 | 0.0 | 3.0 | 0.00 | 0.14 | 0.14 | 97 | 1008.2 |
| 20260506034539 | 48 | 244 | 0.0 | 3.0 | 0.00 | 0.14 | 0.14 | 97 | 1008.3 |
| 20260506034338 | 48 | 252 | 1.0 | 3.0 | 0.00 | 0.14 | 0.14 | 97 | 1008.4 |
| 20260506034138 | 48 | 250 | 1.0 | 3.0 | 0.00 | 0.14 | 0.14 | 97 | 1008.4 |
| 20260506033938 | 48 | 223 | 0.0 | 4.0 | 0.00 | 0.14 | 0.14 | 97 | 1008.3 |
| 20260506033737 | 48 | 217 | 1.0 | 4.0 | 0.00 | 0.14 | 0.14 | 97 | 1008.2 |
| 20260506033537 | 48 | 218 | 1.0 | 4.0 | 0.00 | 0.14 | 0.14 | 97 | 1008.2 |
| 20260506033337 | 48 | 218 | 1.0 | 4.0 | 0.01 | 0.14 | 0.14 | 97 | 1008.2 |
| 20260506033137 | 48 | 222 | 1.0 | 4.0 | 0.01 | 0.14 | 0.14 | 97 | 1008.3 |
| 20260506032936 | 48 | 239 | 0.0 | 2.0 | 0.01 | 0.14 | 0.14 | 97 | 1008.2 |
| 20260506032736 | 48 | 0 | 0.0 | 2.0 | 0.01 | 0.14 | 0.14 | 97 | 1008.2 |
| 20260506032536 | 48 | 239 | 0.0 | 2.0 | 0.01 | 0.14 | 0.14 | 97 | 1008.2 |
| 20260506032335 | 48 | 239 | 0.0 | 2.0 | 0.01 | 0.14 | 0.14 | 97 | 1008.2 |
| 20260506032135 | 48 | 0 | 0.0 | 3.0 | 0.01 | 0.14 | 0.14 | 97 | 1008.2 |
| 20260506031935 | 48 | 239 | 0.0 | 4.0 | 0.01 | 0.14 | 0.14 | 97 | 1008.1 |
| 20260506031734 | 48 | 239 | 0.0 | 4.0 | 0.01 | 0.14 | 0.14 | 97 | 1008.0 |
| 20260506031534 | 48 | 239 | 0.0 | 4.0 | 0.01 | 0.14 | 0.14 | 97 | 1007.9 |
| 20260506031334 | 48 | 224 | 1.0 | 4.0 | 0.01 | 0.14 | 0.14 | 97 | 1007.9 |
| 20260506031134 | 48 | 221 | 0.0 | 4.0 | 0.01 | 0.14 | 0.14 | 97 | 1007.8 |
| 20260506030933 | 48 | 239 | 0.0 | 3.0 | 0.01 | 0.14 | 0.14 | 97 | 1007.8 |
| 20260506030733 | 48 | 237 | 0.0 | 4.0 | 0.01 | 0.14 | 0.14 | 97 | 1007.9 |
| 20260506030533 | 48 | 233 | 1.0 | 4.0 | 0.01 | 0.14 | 0.14 | 97 | 1008.0 |
| 20260506030332 | 48 | 248 | 1.0 | 4.0 | 0.01 | 0.14 | 0.14 | 97 | 1008.1 |
| 20260506030132 | 48 | 256 | 1.0 | 4.0 | 0.01 | 0.14 | 0.14 | 97 | 1008.1 |
| 20260506025932 | 48 | 245 | 0.0 | 4.0 | 0.01 | 0.14 | 0.14 | 96 | 1008.2 |
| 20260506025731 | 48 | 223 | 1.0 | 4.0 | 0.01 | 0.14 | 0.14 | 96 | 1008.2 |
| 20260506025531 | 48 | 225 | 1.0 | 4.0 | 0.01 | 0.14 | 0.14 | 96 | 1008.4 |
| 20260506025331 | 48 | 224 | 1.0 | 4.0 | 0.01 | 0.14 | 0.14 | 96 | 1008.4 |
| 20260506025131 | 48 | 222 | 0.0 | 4.0 | 0.01 | 0.14 | 0.14 | 96 | 1008.2 |
| 20260506024930 | 48 | 223 | 1.0 | 4.0 | 0.01 | 0.14 | 0.14 | 96 | 1008.3 |
| 20260506024730 | 48 | 225 | 2.0 | 4.0 | 0.01 | 0.14 | 0.14 | 96 | 1008.2 |
| 20260506024530 | 48 | 225 | 1.0 | 4.0 | 0.01 | 0.14 | 0.14 | 96 | 1008.3 |
| 20260506024329 | 48 | 224 | 1.0 | 4.0 | 0.01 | 0.14 | 0.14 | 96 | 1008.4 |
| 20260506024129 | 48 | 225 | 0.0 | 4.0 | 0.01 | 0.14 | 0.14 | 96 | 1008.4 |
| 20260506023929 | 48 | 0 | 0.0 | 4.0 | 0.01 | 0.14 | 0.14 | 96 | 1008.5 |
| 20260506023728 | 48 | 223 | 1.0 | 4.0 | 0.01 | 0.14 | 0.14 | 96 | 1008.4 |
| 20260506023528 | 48 | 228 | 1.0 | 4.0 | 0.01 | 0.14 | 0.14 | 96 | 1008.4 |
| 20260506023328 | 48 | 232 | 1.0 | 4.0 | 0.00 | 0.13 | 0.13 | 96 | 1008.4 |
| 20260506023128 | 48 | 232 | 1.0 | 4.0 | 0.00 | 0.13 | 0.13 | 96 | 1008.6 |
| 20260506022927 | 48 | 219 | 1.0 | 4.0 | 0.00 | 0.13 | 0.13 | 96 | 1008.6 |
| 20260506022727 | 48 | 218 | 1.0 | 4.0 | 0.00 | 0.13 | 0.13 | 96 | 1008.5 |
| 20260506022527 | 48 | 225 | 0.0 | 3.0 | 0.00 | 0.13 | 0.13 | 96 | 1008.6 |
| 20260506022326 | 48 | 0 | 0.0 | 3.0 | 0.00 | 0.13 | 0.13 | 96 | 1008.6 |
| 20260506022126 | 48 | 225 | 1.0 | 3.0 | 0.00 | 0.13 | 0.13 | 96 | 1008.5 |
| 20260506021926 | 48 | 227 | 1.0 | 3.0 | 0.00 | 0.13 | 0.13 | 96 | 1008.7 |
| 20260506021725 | 48 | 232 | 1.0 | 3.0 | 0.00 | 0.13 | 0.13 | 96 | 1008.7 |
| 20260506021525 | 48 | 235 | 1.0 | 3.0 | 0.00 | 0.13 | 0.13 | 96 | 1008.6 |
| 20260506021325 | 48 | 235 | 0.0 | 3.0 | 0.00 | 0.13 | 0.13 | 96 | 1008.6 |
| 20260506021125 | 48 | 235 | 1.0 | 4.0 | 0.00 | 0.13 | 0.13 | 96 | 1008.5 |
| 20260506020924 | 48 | 0 | 0.0 | 4.0 | 0.00 | 0.13 | 0.13 | 96 | 1008.5 |
| 20260506020724 | 48 | 235 | 0.0 | 4.0 | 0.01 | 0.13 | 0.13 | 96 | 1008.5 |
| 20260506020524 | 48 | 226 | 1.0 | 4.0 | 0.01 | 0.13 | 0.13 | 96 | 1008.5 |
| 20260506020323 | 48 | 225 | 1.0 | 4.0 | 0.01 | 0.13 | 0.13 | 96 | 1008.6 |
| 20260506020123 | 48 | 234 | 0.0 | 3.0 | 0.01 | 0.13 | 0.13 | 96 | 1008.4 |
| 20260506015923 | 48 | 230 | 1.0 | 3.0 | 0.01 | 0.13 | 0.13 | 96 | 1008.4 |
| 20260506015722 | 48 | 224 | 0.0 | 4.0 | 0.01 | 0.13 | 0.13 | 96 | 1008.4 |
| 20260506015522 | 48 | 215 | 0.0 | 4.0 | 0.01 | 0.13 | 0.13 | 96 | 1008.4 |
| 20260506015322 | 48 | 215 | 0.0 | 4.0 | 0.01 | 0.13 | 0.13 | 96 | 1008.4 |
| 20260506015122 | 48 | 227 | 1.0 | 4.0 | 0.02 | 0.13 | 0.13 | 96 | 1008.3 |
| 20260506014921 | 48 | 233 | 1.0 | 3.0 | 0.02 | 0.13 | 0.13 | 96 | 1008.3 |
| 20260506014721 | 48 | 232 | 0.0 | 3.0 | 0.02 | 0.13 | 0.13 | 96 | 1008.2 |
| 20260506014521 | 48 | 240 | 0.0 | 3.0 | 0.02 | 0.13 | 0.13 | 96 | 1008.0 |
| 20260506014320 | 48 | 250 | 0.0 | 3.0 | 0.02 | 0.13 | 0.13 | 96 | 1008.0 |
| 20260506014120 | 48 | 0 | 0.0 | 3.0 | 0.02 | 0.13 | 0.13 | 96 | 1007.9 |
| 20260506013920 | 48 | 0 | 0.0 | 4.0 | 0.02 | 0.13 | 0.13 | 96 | 1007.8 |
| 20260506013719 | 48 | 250 | 0.0 | 4.0 | 0.02 | 0.13 | 0.13 | 95 | 1008.0 |
| 20260506013519 | 48 | 240 | 0.0 | 4.0 | 0.02 | 0.13 | 0.13 | 95 | 1008.1 |
| 20260506013319 | 48 | 233 | 2.0 | 4.0 | 0.02 | 0.13 | 0.13 | 95 | 1008.1 |
| 20260506013119 | 48 | 245 | 1.0 | 4.0 | 0.02 | 0.13 | 0.13 | 95 | 1008.2 |
| 20260506012918 | 48 | 249 | 0.0 | 4.0 | 0.02 | 0.13 | 0.13 | 95 | 1008.2 |
| 20260506012718 | 48 | 249 | 0.0 | 5.0 | 0.02 | 0.13 | 0.13 | 95 | 1008.2 |
| 20260506012518 | 48 | 249 | 1.0 | 7.0 | 0.02 | 0.13 | 0.13 | 95 | 1008.3 |
| 20260506012317 | 48 | 245 | 2.0 | 8.0 | 0.03 | 0.13 | 0.13 | 95 | 1008.4 |
| 20260506012117 | 48 | 224 | 2.0 | 8.0 | 0.03 | 0.13 | 0.13 | 95 | 1008.5 |
| 20260506011917 | 48 | 228 | 3.0 | 9.0 | 0.03 | 0.13 | 0.13 | 95 | 1008.4 |
| 20260506011716 | 48 | 226 | 4.0 | 9.0 | 0.03 | 0.13 | 0.13 | 95 | 1008.5 |
| 20260506011516 | 49 | 231 | 3.0 | 9.0 | 0.03 | 0.13 | 0.13 | 95 | 1008.5 |
| 20260506011316 | 48 | 237 | 2.0 | 9.0 | 0.03 | 0.13 | 0.13 | 95 | 1008.4 |
| 20260506011116 | 49 | 233 | 3.0 | 9.0 | 0.03 | 0.13 | 0.13 | 95 | 1008.3 |
| 20260506010915 | 49 | 233 | 3.0 | 8.0 | 0.02 | 0.12 | 0.12 | 95 | 1008.3 |
| 20260506010715 | 49 | 220 | 4.0 | 8.0 | 0.02 | 0.12 | 0.12 | 95 | 1008.2 |
| 20260506010515 | 49 | 222 | 4.0 | 8.0 | 0.02 | 0.12 | 0.12 | 95 | 1008.2 |
| 20260506010314 | 49 | 232 | 3.0 | 6.0 | 0.02 | 0.12 | 0.12 | 95 | 1008.2 |
| 20260506010114 | 49 | 234 | 2.0 | 5.0 | 0.02 | 0.12 | 0.12 | 95 | 1008.2 |
| 20260506005914 | 49 | 234 | 2.0 | 5.0 | 0.02 | 0.12 | 0.12 | 95 | 1008.1 |
| 20260506005713 | 49 | 231 | 1.0 | 5.0 | 0.02 | 0.12 | 0.12 | 94 | 1008.1 |
| 20260506005513 | 49 | 0 | 0.0 | 0.0 | 0.02 | 0.12 | 0.12 | 95 | 1007.9 |
| 20260506005313 | 49 | 0 | 0.0 | 1.0 | 0.02 | 0.12 | 0.12 | 94 | 1007.8 |
| 20260506005112 | 49 | 0 | 0.0 | 2.0 | 0.01 | 0.11 | 0.11 | 94 | 1007.8 |
| 20260506004912 | 49 | 0 | 0.0 | 2.0 | 0.01 | 0.11 | 0.11 | 94 | 1007.7 |
| 20260506004712 | 49 | 232 | 0.0 | 2.0 | 0.01 | 0.11 | 0.11 | 94 | 1007.8 |
| 20260506004512 | 49 | 232 | 0.0 | 2.0 | 0.01 | 0.11 | 0.11 | 94 | 1007.7 |
| 20260506004311 | 49 | 232 | 0.0 | 2.0 | 0.01 | 0.11 | 0.11 | 94 | 1007.6 |
| 20260506004111 | 49 | 232 | 0.0 | 2.0 | 0.01 | 0.11 | 0.11 | 94 | 1007.6 |
| 20260506003911 | 49 | 232 | 0.0 | 2.0 | 0.01 | 0.11 | 0.11 | 94 | 1007.6 |
| 20260506003710 | 49 | 232 | 0.0 | 2.0 | 0.01 | 0.11 | 0.11 | 94 | 1007.7 |
| 20260506003510 | 49 | 232 | 0.0 | 2.0 | 0.01 | 0.11 | 0.11 | 94 | 1007.7 |
| 20260506003310 | 49 | 232 | 0.0 | 2.0 | 0.01 | 0.11 | 0.11 | 94 | 1007.8 |
| 20260506003109 | 49 | 232 | 0.0 | 3.0 | 0.01 | 0.11 | 0.11 | 94 | 1007.9 |
| 20260506002909 | 49 | 232 | 0.0 | 3.0 | 0.01 | 0.11 | 0.11 | 94 | 1007.9 |
| 20260506002709 | 49 | 232 | 0.0 | 3.0 | 0.01 | 0.11 | 0.11 | 93 | 1007.9 |
| 20260506002509 | 49 | 232 | 1.0 | 4.0 | 0.00 | 0.10 | 0.10 | 93 | 1007.8 |
| 20260506002308 | 49 | 232 | 1.0 | 4.0 | 0.00 | 0.10 | 0.10 | 93 | 1007.8 |
| 20260506002108 | 49 | 232 | 1.0 | 4.0 | 0.00 | 0.10 | 0.10 | 93 | 1007.9 |
| 20260506001908 | 49 | 226 | 1.0 | 4.0 | 0.00 | 0.10 | 0.10 | 93 | 1007.9 |
| 20260506001707 | 49 | 209 | 1.0 | 4.0 | 0.00 | 0.10 | 0.10 | 93 | 1007.8 |
| 20260506001507 | 49 | 0 | 0.0 | 1.0 | 0.00 | 0.10 | 0.10 | 93 | 1007.8 |
| 20260506001307 | 49 | 0 | 0.0 | 1.0 | 0.00 | 0.10 | 0.10 | 93 | 1007.7 |
| 20260506001106 | 49 | 206 | 0.0 | 1.0 | 0.00 | 0.10 | 0.10 | 93 | 1007.7 |
| 20260506000906 | 49 | 206 | 0.0 | 1.0 | 0.00 | 0.10 | 0.10 | 93 | 1007.8 |
| 20260506000706 | 49 | 206 | 0.0 | 2.0 | 0.00 | 0.10 | 0.10 | 93 | 1007.9 |
| 20260506000506 | 49 | 206 | 0.0 | 2.0 | 0.00 | 0.10 | 0.10 | 92 | 1007.9 |
| 20260506000305 | 49 | 206 | 0.0 | 3.0 | 0.00 | 0.10 | 0.10 | 92 | 1007.9 |
| 20260506000105 | 49 | 206 | 0.0 | 3.0 | 0.00 | 0.10 | 0.10 | 92 | 1007.8 |
| 20260505235905 | 49 | 206 | 0.0 | 3.0 | 0.00 | 0.10 | 0.10 | 92 | 1007.8 |
| 20260505235704 | 49 | 206 | 1.0 | 4.0 | 0.00 | 0.10 | 0.10 | 92 | 1007.9 |
| 20260505235504 | 49 | 206 | 1.0 | 4.0 | 0.00 | 0.10 | 0.10 | 92 | 1008.0 |
| 20260505235305 | 49 | 206 | 1.0 | 4.0 | 0.00 | 0.10 | 0.10 | 92 | 1008.0 |
| 20260505235103 | 49 | 162 | 1.0 | 4.0 | 0.00 | 0.10 | 0.10 | 92 | 1007.9 |
| 20260505234903 | 49 | 123 | 1.0 | 4.0 | 0.00 | 0.10 | 0.10 | 92 | 1007.9 |
| 20260505234703 | 49 | 126 | 1.0 | 4.0 | 0.00 | 0.10 | 0.10 | 92 | 1007.8 |
| 20260505234503 | 49 | 213 | 1.0 | 3.0 | 0.00 | 0.10 | 0.10 | 92 | 1007.8 |
| 20260505234302 | 50 | 249 | 1.0 | 3.0 | 0.00 | 0.10 | 0.10 | 92 | 1007.8 |
| 20260505234102 | 50 | 234 | 0.0 | 3.0 | 0.00 | 0.10 | 0.10 | 92 | 1007.8 |
| 20260505233902 | 50 | 0 | 0.0 | 2.0 | 0.00 | 0.10 | 0.10 | 92 | 1007.6 |
| 20260505233701 | 50 | 121 | 0.0 | 3.0 | 0.00 | 0.10 | 0.10 | 92 | 1007.5 |
| 20260505233501 | 50 | 121 | 0.0 | 3.0 | 0.00 | 0.10 | 0.10 | 92 | 1007.5 |
| 20260505233301 | 50 | 121 | 0.0 | 3.0 | 0.00 | 0.10 | 0.10 | 92 | 1007.5 |
| 20260505233100 | 50 | 155 | 0.0 | 3.0 | 0.00 | 0.10 | 0.10 | 92 | 1007.5 |
| 20260505232900 | 50 | 202 | 0.0 | 3.0 | 0.00 | 0.10 | 0.10 | 92 | 1007.5 |
| 20260505232700 | 50 | 201 | 1.0 | 3.0 | 0.00 | 0.10 | 0.10 | 92 | 1007.5 |
| 20260505232500 | 50 | 204 | 1.0 | 3.0 | 0.00 | 0.10 | 0.10 | 92 | 1007.5 |
| 20260505232259 | 50 | 226 | 0.0 | 3.0 | 0.00 | 0.10 | 0.10 | 92 | 1007.4 |
| 20260505232059 | 50 | 240 | 0.0 | 2.0 | 0.00 | 0.10 | 0.10 | 92 | 1007.3 |
| 20260505231859 | 50 | 240 | 0.0 | 2.0 | 0.00 | 0.10 | 0.10 | 92 | 1007.3 |
| 20260505231658 | 50 | 240 | 0.0 | 3.0 | 0.01 | 0.10 | 0.10 | 92 | 1007.3 |
| 20260505231458 | 50 | 241 | 0.0 | 3.0 | 0.01 | 0.10 | 0.10 | 92 | 1007.3 |
| 20260505231258 | 50 | 240 | 0.0 | 3.0 | 0.01 | 0.10 | 0.10 | 92 | 1007.3 |
| 20260505231057 | 50 | 240 | 0.0 | 3.0 | 0.01 | 0.10 | 0.10 | 91 | 1007.5 |
| 20260505230857 | 50 | 240 | 1.0 | 3.0 | 0.01 | 0.10 | 0.10 | 91 | 1007.4 |
| 20260505230657 | 50 | 240 | 1.0 | 3.0 | 0.01 | 0.10 | 0.10 | 91 | 1007.3 |
| 20260505230457 | 50 | 230 | 1.0 | 4.0 | 0.02 | 0.10 | 0.10 | 91 | 1007.4 |
| 20260505230256 | 50 | 91 | 0.0 | 4.0 | 0.02 | 0.10 | 0.10 | 91 | 1007.4 |
| 20260505230056 | 50 | 91 | 1.0 | 4.0 | 0.02 | 0.10 | 0.10 | 91 | 1007.3 |
| 20260505225856 | 50 | 163 | 1.0 | 4.0 | 0.02 | 0.10 | 0.10 | 91 | 1007.3 |
| 20260505225655 | 50 | 192 | 1.0 | 4.0 | 0.02 | 0.10 | 0.10 | 91 | 1007.3 |
| 20260505225455 | 50 | 192 | 1.0 | 4.0 | 0.02 | 0.10 | 0.10 | 91 | 1007.3 |
| 20260505225255 | 50 | 237 | 1.0 | 4.0 | 0.03 | 0.10 | 0.10 | 91 | 1007.3 |
| 20260505225054 | 50 | 240 | 0.0 | 3.0 | 0.03 | 0.10 | 0.10 | 91 | 1007.4 |
| 20260505224854 | 50 | 241 | 0.0 | 3.0 | 0.03 | 0.10 | 0.10 | 91 | 1007.3 |
| 20260505224654 | 50 | 241 | 0.0 | 3.0 | 0.04 | 0.10 | 0.10 | 91 | 1007.4 |
| 20260505224453 | 50 | 241 | 1.0 | 3.0 | 0.04 | 0.10 | 0.10 | 91 | 1007.4 |
| 20260505224253 | 50 | 241 | 0.0 | 3.0 | 0.05 | 0.10 | 0.10 | 91 | 1007.3 |
| 20260505224053 | 50 | 241 | 0.0 | 2.0 | 0.05 | 0.10 | 0.10 | 91 | 1007.3 |
| 20260505223853 | 50 | 241 | 0.0 | 2.0 | 0.05 | 0.10 | 0.10 | 91 | 1007.3 |
| 20260505223652 | 50 | 241 | 0.0 | 2.0 | 0.06 | 0.10 | 0.10 | 91 | 1007.2 |
| 20260505223452 | 50 | 241 | 0.0 | 2.0 | 0.06 | 0.10 | 0.10 | 91 | 1007.2 |
| 20260505223252 | 50 | 0 | 0.0 | 2.0 | 0.06 | 0.10 | 0.10 | 91 | 1007.2 |
| 20260505223052 | 50 | 241 | 0.0 | 2.0 | 0.06 | 0.10 | 0.10 | 91 | 1007.1 |
| 20260505222851 | 50 | 241 | 0.0 | 3.0 | 0.06 | 0.10 | 0.10 | 91 | 1007.1 |
| 20260505222651 | 50 | 241 | 0.0 | 4.0 | 0.06 | 0.10 | 0.10 | 91 | 1007.1 |
| 20260505222451 | 50 | 241 | 0.0 | 4.0 | 0.06 | 0.10 | 0.10 | 91 | 1007.2 |
| 20260505222250 | 50 | 241 | 0.0 | 4.0 | 0.06 | 0.10 | 0.10 | 91 | 1007.2 |
| 20260505222050 | 50 | 183 | 0.0 | 4.0 | 0.06 | 0.10 | 0.10 | 90 | 1007.2 |
| 20260505221850 | 50 | 127 | 0.0 | 4.0 | 0.06 | 0.10 | 0.10 | 91 | 1007.3 |
| 20260505221649 | 50 | 127 | 0.0 | 2.0 | 0.05 | 0.09 | 0.09 | 90 | 1007.4 |
| 20260505221449 | 50 | 127 | 0.0 | 2.0 | 0.05 | 0.09 | 0.09 | 90 | 1007.5 |
| 20260505221249 | 50 | 127 | 0.0 | 3.0 | 0.05 | 0.09 | 0.09 | 90 | 1007.6 |
| 20260505221048 | 50 | 127 | 0.0 | 3.0 | 0.05 | 0.09 | 0.09 | 90 | 1007.6 |
| 20260505220848 | 50 | 128 | 0.0 | 3.0 | 0.05 | 0.09 | 0.09 | 90 | 1007.7 |
| 20260505220648 | 50 | 149 | 0.0 | 3.0 | 0.05 | 0.09 | 0.09 | 89 | 1007.7 |
| 20260505220447 | 50 | 204 | 0.0 | 3.0 | 0.04 | 0.08 | 0.08 | 89 | 1007.7 |
| 20260505220247 | 50 | 232 | 0.0 | 6.0 | 0.04 | 0.08 | 0.08 | 89 | 1007.7 |
| 20260505220047 | 50 | 194 | 0.0 | 6.0 | 0.04 | 0.08 | 0.08 | 89 | 1007.7 |
| 20260505215847 | 50 | 129 | 0.0 | 6.0 | 0.04 | 0.08 | 0.08 | 89 | 1007.7 |
| 20260505215646 | 50 | 131 | 0.0 | 6.0 | 0.04 | 0.08 | 0.08 | 89 | 1007.7 |
| 20260505215446 | 50 | 149 | 1.0 | 6.0 | 0.04 | 0.08 | 0.08 | 88 | 1007.7 |
| 20260505215246 | 50 | 214 | 1.0 | 6.0 | 0.03 | 0.07 | 0.07 | 88 | 1007.7 |
| 20260505215045 | 51 | 143 | 1.0 | 4.0 | 0.03 | 0.07 | 0.07 | 87 | 1007.7 |
| 20260505214845 | 51 | 155 | 1.0 | 6.0 | 0.03 | 0.07 | 0.07 | 87 | 1007.6 |
| 20260505214645 | 51 | 240 | 1.0 | 6.0 | 0.02 | 0.06 | 0.06 | 87 | 1007.6 |
| 20260505214444 | 51 | 93 | 1.0 | 6.0 | 0.02 | 0.06 | 0.06 | 87 | 1007.7 |
| 20260505214244 | 51 | 150 | 1.0 | 6.0 | 0.01 | 0.05 | 0.05 | 87 | 1007.7 |
| 20260505214044 | 51 | 209 | 2.0 | 6.0 | 0.01 | 0.05 | 0.05 | 86 | 1007.8 |
| 20260505213844 | 51 | 222 | 2.0 | 7.0 | 0.01 | 0.05 | 0.05 | 86 | 1007.8 |
| 20260505213643 | 51 | 142 | 1.0 | 7.0 | 0.00 | 0.04 | 0.04 | 86 | 1007.6 |
| 20260505213443 | 51 | 125 | 1.0 | 7.0 | 0.01 | 0.04 | 0.04 | 86 | 1007.5 |
| 20260505213243 | 52 | 128 | 2.0 | 7.0 | 0.01 | 0.04 | 0.04 | 85 | 1007.6 |
| 20260505213042 | 52 | 243 | 3.0 | 7.0 | 0.01 | 0.04 | 0.04 | 85 | 1007.5 |
| 20260505212842 | 52 | 247 | 2.0 | 6.0 | 0.02 | 0.04 | 0.04 | 85 | 1007.4 |
| 20260505212642 | 52 | 180 | 2.0 | 12.0 | 0.02 | 0.04 | 0.04 | 85 | 1007.3 |
| 20260505212441 | 51 | 235 | 1.0 | 12.0 | 0.02 | 0.04 | 0.04 | 85 | 1007.3 |
| 20260505212241 | 51 | 153 | 2.0 | 12.0 | 0.02 | 0.04 | 0.04 | 85 | 1007.2 |
| 20260505212041 | 51 | 128 | 3.0 | 12.0 | 0.02 | 0.04 | 0.04 | 85 | 1007.2 |
| 20260505211841 | 51 | 160 | 3.0 | 12.0 | 0.02 | 0.04 | 0.04 | 85 | 1007.1 |
| 20260505211640 | 51 | 199 | 2.0 | 12.0 | 0.02 | 0.04 | 0.04 | 86 | 1007.0 |
| 20260505211440 | 51 | 173 | 3.0 | 10.0 | 0.02 | 0.04 | 0.04 | 86 | 1007.0 |
| 20260505211240 | 51 | 170 | 3.0 | 10.0 | 0.02 | 0.04 | 0.04 | 86 | 1007.1 |
| 20260505211039 | 51 | 230 | 2.0 | 10.0 | 0.02 | 0.04 | 0.04 | 86 | 1007.1 |